Snowfall_Accumulation
nan nan nan nan nan nan nan nan nan nan nan nan nan nan nan nan nan 0.0 0.0 0.0 0.0 0.0 0.0 0.0 0.0 0.0 0.0 0.0 0.7 0.0 0.5 0.5 0.9 2.4 3.7 2.0 6.2 1.0 0.4 0.0 0.1 0.7 3.2 7.4 3.3 6.1 6.2 0.0 0.0 0.7 0.3 0.0 0.0 0.0
nan nan nan nan nan nan nan nan nan nan nan nan nan nan nan nan nan nan 0.0 0.0 0.0 0.0 0.0 0.0 0.0 0.0 0.0 0.0 0.0 0.0 0.1 0.0 0.2 0.6 3.1 3.9 6.5 7.8 0.7 2.9 0.0 1.4 0.6 0.9 0.2 1.2 0.0 0.0 0.0 0.0 0.0 0.0 0.0 0.0
nan nan nan nan nan nan nan nan nan nan nan nan nan nan nan nan nan nan 0.0 0.0 0.0 0.6 0.0 0.0 0.0 0.0 0.0 0.0 0.0 0.2 0.3 0.0 0.0 0.0 0.4 1.8 3.6 0.6 6.1 1.0 0.4 0.0 0.0 0.5 0.2 0.0 0.0 0.0 0.0 0.0 0.0 0.0 0.0 0.0
nan nan nan nan nan nan nan nan nan nan nan nan nan nan nan nan nan nan 0.0 0.0 0.0 0.2 6.5 0.4 0.0 0.0 0.0 0.0 0.0 0.0 0.0 0.0 0.0 0.1 2.3 3.7 5.6 0.0 1.8 0.8 0.6 0.0 0.1 0.0 0.0 0.0 0.0 0.0 0.0 0.0 0.0 0.0 0.0 0.0
nan nan nan nan nan nan nan nan nan nan nan nan nan nan nan nan nan nan 0.0 0.0 0.0 0.0 2.3 0.6 0.0 0.0 0.0 0.0 0.0 0.0 0.0 0.0 0.2 1.2 7.1 4.1 0.4 1.2 0.8 0.7 0.9 0.0 0.0 0.8 0.6 0.0 0.0 0.0 0.0 0.0 0.0 0.0 0.0 0.0
nan nan nan nan nan nan nan nan nan nan nan nan nan nan nan nan nan 0.0 0.0 0.0 0.0 0.0 1.0 3.1 0.0 0.0 0.0 0.0 0.0 0.0 0.0 0.0 0.0 0.2 3.8 0.4 0.0 0.5 7.9 1.2 0.0 0.0 0.0 0.0 0.0 0.0 0.0 0.0 0.0 0.0 0.0 0.0 0.0 0.0
nan nan nan nan nan nan nan nan nan nan nan nan nan nan nan nan 0.0 0.0 0.0 0.0 nan 0.0 1.1 3.4 1.0 0.2 0.0 0.0 0.0 0.0 0.0 0.0 0.0 0.4 1.3 0.5 0.5 0.0 4.2 1.9 0.0 0.0 0.0 0.0 0.0 0.0 0.0 0.0 0.0 0.0 0.0 0.0 0.0 0.0
nan nan nan nan nan nan nan nan nan nan nan nan nan nan nan nan nan 0.1 0.0 nan nan 0.0 0.5 3.0 2.6 1.4 0.0 0.7 2.1 0.0 0.4 0.5 0.1 0.0 1.3 1.2 0.5 1.6 1.9 0.0 0.0 0.0 0.0 0.0 0.0 0.0 0.0 0.0 0.0 0.0 0.0 0.0 0.0 0.0
nan nan nan nan nan nan nan nan nan nan nan nan nan nan 0.0 0.0 0.3 0.0 nan nan 0.0 0.1 1.1 8.0 4.3 6.9 0.0 0.2 1.1 0.7 0.1 3.8 0.1 3.1 1.5 0.6 1.5 2.1 0.0 0.0 0.0 0.0 0.0 0.0 0.0 0.0 0.0 0.0 0.0 0.0 0.0 0.0 0.0 0.0
nan nan nan nan nan nan nan nan nan nan nan nan 0.0 0.0 1.2 0.8 nan nan 0.0 0.7 0.8 0.8 0.6 3.9 0.5 2.5 0.0 1.2 2.1 1.5 1.6 3.7 4.3 3.2 0.0 3.4 0.7 0.0 0.0 0.0 0.0 0.0 0.0 0.0 0.0 0.0 0.0 0.0 0.0 0.0 0.0 0.0 0.0 0.0
nan nan nan nan nan nan nan nan nan nan nan 0.1 1.0 0.9 0.0 nan 0.0 0.3 1.4 1.4 0.6 3.2 0.4 0.8 0.7 0.7 0.3 2.8 3.4 1.5 4.7 4.4 6.5 1.5 4.0 2.8 1.4 0.0 0.0 0.0 0.0 0.0 0.0 0.0 0.0 0.0 0.0 0.0 0.0 0.0 0.0 0.1 0.1 0.1
nan nan nan nan nan nan nan nan nan 0.0 0.0 0.0 0.2 0.0 0.0 0.0 1.1 3.8 6.8 4.4 2.9 2.0 1.1 2.7 1.3 0.3 1.5 0.0 1.3 3.5 4.0 3.6 5.6 0.6 9.4 4.3 0.4 0.0 0.0 0.0 0.0 0.0 0.0 0.0 0.0 0.0 0.0 0.0 0.0 0.0 0.1 0.1 0.2 0.2
nan nan nan nan nan nan nan nan nan nan nan 0.0 0.6 1.4 0.8 7.7 31.1 11.5 8.4 6.3 11.2 3.1 4.4 4.5 10.4 1.6 1.6 0.7 4.7 3.7 9.7 8.8 1.2 10.0 1.7 0.8 0.0 0.0 0.0 0.0 0.0 0.0 0.0 0.0 0.0 0.0 0.0 0.0 0.0 0.1 0.6 0.3 1.6 0.5
nan nan nan nan nan nan nan nan nan 0.0 0.0 1.1 5.4 32.2 11.8 12.7 4.7 3.5 2.6 4.0 3.8 3.7 3.2 2.3 4.2 3.5 5.2 6.1 5.1 9.8 3.4 2.1 8.2 6.9 4.1 0.4 0.0 0.0 0.0 0.0 0.0 0.0 1.0 0.4 0.0 0.1 0.3 0.5 0.5 1.6 2.8 3.6 2.8 0.5
nan nan nan nan nan nan nan nan nan 0.0 0.2 1.5 3.1 21.1 7.4 3.7 3.7 4.3 4.0 3.3 1.7 1.5 1.9 3.3 3.1 0.9 6.5 10.4 5.2 4.4 10.5 9.5 4.4 4.8 2.4 0.7 0.0 0.0 0.0 0.0 0.0 0.2 1.8 1.1 0.0 0.4 2.4 1.7 0.9 0.5 0.9 0.5 0.4 3.0
nan nan 0.0 nan nan nan nan nan 0.0 0.0 1.0 1.3 2.1 5.7 4.4 9.0 14.3 14.8 9.3 7.7 1.0 1.7 2.1 2.4 4.2 7.8 7.7 6.5 6.2 7.0 4.9 4.3 5.7 2.8 1.4 0.3 0.0 0.1 0.1 0.1 0.1 0.1 0.1 0.1 0.1 0.1 0.6 1.6 1.9 0.2 0.5 1.1 4.2 4.2
nan 0.3 nan nan nan nan nan 0.0 0.6 0.2 2.3 3.0 10.0 3.9 6.7 7.3 8.9 7.9 5.4 2.1 0.1 4.5 13.1 4.3 7.2 4.3 2.2 5.5 3.6 1.6 9.6 4.3 2.4 0.9 0.5 0.1 0.1 0.1 0.1 0.1 2.3 0.3 0.1 0.2 0.1 0.2 0.2 0.4 0.9 0.8 1.3 0.1 0.2 0.7
0.2 0.0 nan nan nan nan 0.0 0.2 1.7 1.8 2.1 2.0 9.4 6.4 3.9 4.1 6.3 6.8 3.9 1.4 1.9 1.3 1.8 1.6 1.2 3.8 11.7 4.9 6.1 3.3 1.4 1.2 0.7 1.0 0.4 0.1 0.0 0.1 0.0 0.0 0.0 0.0 0.1 0.1 0.4 0.2 0.3 1.5 0.6 0.8 0.1 0.1 0.4 0.5
0.0 0.0 nan nan 0.0 0.6 1.5 1.4 0.5 1.9 3.5 1.9 1.6 1.8 2.3 4.3 2.4 1.4 4.2 2.7 1.0 0.6 2.3 3.0 6.9 4.2 5.5 2.0 4.1 3.6 3.1 1.6 0.7 0.2 0.2 0.0 0.1 0.1 0.1 0.1 0.1 0.1 0.1 0.1 0.1 0.6 0.5 0.1 0.4 0.4 0.6 0.8 1.5 1.7
nan nan nan nan nan 1.1 1.4 3.1 0.5 0.6 2.1 1.4 1.6 1.8 1.9 2.1 4.0 10.7 9.1 3.5 1.7 2.9 4.3 4.3 3.3 2.2 1.6 1.0 0.6 0.9 0.6 0.6 0.6 1.0 0.6 0.3 0.3 0.0 0.0 0.2 0.4 0.1 0.4 0.1 0.8 0.3 1.0 0.8 0.6 1.0 1.1 1.3 3.6 4.2
nan nan nan 0.0 0.9 0.0 1.1 1.4 0.9 1.0 0.8 1.0 1.0 1.0 3.3 3.6 5.7 8.4 6.6 1.9 11.3 3.5 2.2 1.3 3.3 0.7 0.3 0.5 0.5 0.5 0.4 0.3 0.4 1.3 1.1 0.6 0.4 0.5 0.4 0.5 0.7 0.7 1.0 1.1 4.1 2.2 1.7 2.1 1.1 1.2 9.8 11.3 7.3 5.8
0.0 nan 1.4 1.3 3.2 3.6 3.7 0.8 1.0 1.1 2.3 2.0 2.2 1.5 7.2 16.9 16.2 9.8 2.3 7.1 2.4 1.0 0.4 0.8 0.4 0.5 0.4 0.2 0.2 0.0 0.0 0.1 0.0 0.4 0.1 0.3 0.9 0.8 0.8 0.8 1.2 2.3 2.0 3.3 2.0 4.4 2.6 1.3 2.6 3.3 7.2 10.8 5.2 6.6
nan 1.5 6.0 4.5 7.5 11.7 18.6 0.9 5.2 0.9 7.1 5.4 3.5 4.4 8.2 7.4 4.2 1.2 8.4 0.8 1.1 0.3 0.2 0.2 0.0 0.0 0.1 0.0 0.1 0.0 0.0 0.0 0.5 0.8 1.3 1.0 0.7 1.8 1.9 1.4 1.8 5.0 3.9 1.5 1.2 2.5 3.4 2.8 4.2 10.4 7.6 8.6 9.3 19.1
nan 7.2 10.2 10.7 9.6 18.6 8.1 11.7 1.7 3.0 4.1 6.2 6.8 6.6 1.2 3.6 2.6 7.3 6.9 3.8 0.7 0.6 0.5 0.0 0.3 0.5 0.5 0.1 0.4 0.4 0.4 0.4 0.6 0.8 1.1 1.4 1.5 1.2 1.2 1.3 2.3 2.3 1.6 1.3 2.6 4.5 4.7 11.4 7.4 6.2 13.5 25.3 30.6 25.8
18.5 26.3 15.7 33.7 10.5 18.4 15.0 13.6 7.4 5.4 9.1 9.6 7.6 7.7 13.5 3.5 9.9 8.7 3.9 2.7 2.8 3.6 2.3 1.5 0.8 0.6 0.6 1.4 1.0 0.7 0.2 0.5 1.0 1.1 1.3 1.5 2.5 2.8 1.8 1.2 1.5 1.6 2.5 9.6 11.9 15.2 14.8 14.8 17.1 16.3 10.5 28.7 10.1 12.5
38.7 23.7 17.7 10.8 18.9 11.5 7.6 13.5 13.7 15.4 9.3 11.1 9.7 5.0 8.6 10.8 9.7 9.1 1.7 4.2 7.5 3.8 16.6 11.8 5.7 1.8 0.8 0.5 0.6 0.8 0.8 1.0 1.3 1.6 1.3 1.2 1.7 6.6 8.0 6.4 5.4 4.2 3.9 7.6 12.7 21.1 15.6 17.1 19.7 10.6 19.9 11.2 9.1 25.7
33.5 26.9 3.8 1.1 1.9 1.6 15.8 14.0 5.1 9.7 11.2 13.2 8.3 11.9 13.3 20.1 15.2 2.5 1.3 1.5 1.3 2.9 1.7 1.9 1.7 1.3 1.1 0.8 0.9 1.8 1.8 2.2 2.5 1.8 1.9 1.7 2.0 2.0 6.4 13.1 7.4 4.6 3.9 7.4 11.3 23.2 23.7 22.6 23.9 16.6 20.4 21.6 23.8 26.0
7.7 4.5 14.6 10.7 13.2 4.0 12.6 9.3 9.8 10.3 6.8 2.3 8.1 12.9 15.8 13.4 5.7 3.2 1.6 1.8 4.4 1.9 1.9 2.2 2.1 1.6 1.8 2.2 2.9 4.7 5.4 5.2 6.5 5.1 4.0 3.9 3.5 7.1 6.8 7.0 6.1 7.4 8.4 15.7 19.6 20.6 16.5 24.5 27.4 27.8 25.5 26.4 30.0 26.2
8.5 5.2 6.4 14.3 7.6 7.3 9.2 11.4 8.6 2.8 1.1 4.5 19.5 8.9 6.1 2.1 6.8 4.0 2.7 3.5 5.1 5.0 6.0 7.4 8.8 12.6 7.3 6.0 9.4 7.6 9.8 11.9 11.0 11.6 15.3 15.6 14.4 12.4 9.0 10.6 11.5 15.3 14.1 14.9 7.8 10.6 13.9 20.0 23.4 27.2 25.8 31.8 31.7 35.3
8.0 6.3 10.4 10.9 11.4 8.2 14.8 9.7 12.3 9.8 1.3 4.2 2.6 2.3 2.4 5.6 6.0 4.7 6.4 6.4 9.2 21.3 31.2 25.6 23.4 23.5 36.6 25.3 21.0 14.7 16.1 19.9 16.6 24.4 27.9 20.5 16.6 15.6 18.2 22.6 21.8 20.1 19.2 35.3 23.5 12.5 9.2 24.4 19.3 37.2 31.7 29.0 31.7 37.4
5.8 13.7 14.4 8.7 12.4 19.0 18.8 21.8 21.6 11.2 11.6 17.8 19.8 22.0 15.8 10.1 11.1 7.8 6.5 9.8 11.0 37.6 40.6 45.8 42.8 41.1 38.4 24.8 38.3 34.6 24.3 31.9 14.2 11.1 11.1 16.5 19.2 25.0 26.0 22.9 23.9 26.9 27.4 26.8 34.0 29.3 27.6 32.4 31.7 31.6 24.6 20.9 23.4 25.0
16.4 23.7 22.2 12.7 15.3 28.2 15.5 33.4 26.8 24.0 29.1 29.0 33.1 28.1 34.1 29.9 18.1 13.7 17.2 27.8 32.8 37.8 9.0 33.0 49.3 22.9 19.9 17.9 28.0 22.4 10.1 14.9 15.6 15.5 15.1 20.0 23.9 26.6 16.9 14.2 30.6 31.1 26.0 28.6 24.9 26.3 21.5 30.5 30.1 33.4 29.2 24.4 22.6 20.8
35.7 27.1 19.7 17.7 32.5 17.4 20.1 26.2 8.1 23.0 23.3 27.1 31.4 28.8 30.5 26.1 15.5 22.4 10.0 25.8 31.9 34.9 29.6 39.6 41.5 47.0 21.9 18.9 18.0 19.5 13.6 19.5 18.7 10.4 9.1 9.1 9.0 10.6 20.2 29.2 33.5 26.7 17.1 23.8 27.2 25.5 20.9 15.7 20.4 20.8 23.1 26.4 24.1 22.0
Water_Equivalent
nan nan nan nan nan nan nan nan nan nan nan nan nan nan nan nan nan 0.00 0.00 0.00 0.00 0.00 0.00 0.00 0.00 0.00 0.00 0.01 0.16 0.00 0.12 0.12 0.23 0.61 0.84 0.42 1.39 0.21 0.09 0.00 0.02 0.13 0.62 1.46 0.67 1.18 1.12 0.00 0.00 0.15 0.07 0.00 0.00 0.00
nan nan nan nan nan nan nan nan nan nan nan nan nan nan nan nan nan nan 0.00 0.00 0.00 0.00 0.00 0.00 0.00 0.00 0.00 0.00 0.00 0.00 0.01 0.00 0.04 0.15 0.79 0.84 1.53 1.88 0.15 0.55 0.00 0.29 0.12 0.18 0.03 0.24 0.00 0.00 0.00 0.00 0.00 0.00 0.00 0.00
nan nan nan nan nan nan nan nan nan nan nan nan nan nan nan nan nan nan 0.00 0.00 0.00 0.16 0.01 0.00 0.00 0.00 0.00 0.00 0.00 0.06 0.09 0.00 0.01 0.00 0.10 0.44 0.90 0.15 1.45 0.23 0.10 0.00 0.00 0.11 0.04 0.00 0.00 0.00 0.00 0.00 0.00 0.00 0.00 0.00
nan nan nan nan nan nan nan nan nan nan nan nan nan nan nan nan nan nan 0.00 0.00 0.00 0.04 1.75 0.10 0.00 0.00 0.00 0.00 0.00 0.00 0.00 0.00 0.00 0.03 0.60 0.97 1.46 0.00 0.45 0.21 0.16 0.01 0.02 0.01 0.01 0.00 0.00 0.00 0.00 0.00 0.00 0.00 0.00 0.00
nan nan nan nan nan nan nan nan nan nan nan nan nan nan nan nan nan nan 0.00 0.00 0.00 0.01 0.61 0.15 0.00 0.00 0.00 0.00 0.00 0.00 0.00 0.00 0.06 0.31 1.90 1.08 0.11 0.33 0.21 0.17 0.24 0.00 0.00 0.22 0.16 0.00 0.00 0.00 0.00 0.00 0.00 0.00 0.00 0.00
nan nan nan nan nan nan nan nan nan nan nan nan nan nan nan nan nan 0.00 0.00 0.00 0.00 0.00 0.26 0.82 0.00 0.00 0.00 0.00 0.00 0.00 0.00 0.00 0.00 0.05 1.00 0.10 0.00 0.13 2.11 0.31 0.00 0.00 0.00 0.00 0.00 0.00 0.00 0.00 0.00 0.00 0.00 0.00 0.00 0.00
nan nan nan nan nan nan nan nan nan nan nan nan nan nan nan nan 0.00 0.00 0.00 0.00 nan 0.00 0.30 0.93 0.26 0.06 0.00 0.00 0.00 0.00 0.00 0.00 0.00 0.10 0.33 0.13 0.12 0.01 1.10 0.51 0.00 0.00 0.00 0.00 0.00 0.00 0.00 0.00 0.00 0.00 0.00 0.00 0.00 0.00
nan nan nan nan nan nan nan nan nan nan nan nan nan nan nan nan nan 0.03 0.00 nan nan 0.00 0.12 0.82 0.68 0.36 0.00 0.19 0.55 0.00 0.12 0.14 0.03 0.00 0.34 0.30 0.13 0.41 0.50 0.00 0.00 0.00 0.00 0.00 0.00 0.00 0.00 0.00 0.00 0.00 0.00 0.00 0.00 0.00
nan nan nan nan nan nan nan nan nan nan nan nan nan nan 0.00 0.00 0.09 0.00 nan nan 0.00 0.02 0.28 2.15 1.12 1.79 0.00 0.06 0.28 0.17 0.02 1.01 0.03 0.81 0.38 0.15 0.40 0.57 0.00 0.00 0.00 0.00 0.00 0.00 0.00 0.00 0.00 0.00 0.00 0.00 0.00 0.00 0.00 0.00
nan nan nan nan nan nan nan nan nan nan nan nan 0.00 0.01 0.32 0.20 nan nan 0.01 0.19 0.20 0.20 0.17 1.02 0.12 0.65 0.01 0.32 0.55 0.38 0.43 0.94 0.88 0.82 0.01 0.88 0.18 0.00 0.00 0.00 0.00 0.00 0.00 0.00 0.00 0.01 0.00 0.00 0.00 0.00 0.00 0.00 0.00 0.00
nan nan nan nan nan nan nan nan nan nan nan 0.02 0.25 0.24 0.00 nan 0.00 0.08 0.37 0.36 0.17 0.80 0.11 0.20 0.18 0.18 0.08 0.75 0.90 0.39 1.09 0.99 1.24 0.30 0.84 0.56 0.27 0.00 0.00 0.00 0.00 0.00 0.00 0.00 0.00 0.00 0.00 0.00 0.00 0.00 0.00 0.01 0.02 0.02
nan nan nan nan nan nan nan nan nan 0.00 0.00 0.00 0.05 0.00 0.01 0.00 0.28 1.04 1.53 0.97 0.62 0.42 0.26 0.68 0.33 0.07 0.38 0.00 0.33 0.75 0.80 0.74 1.00 0.13 1.82 0.77 0.08 0.00 0.00 0.00 0.00 0.00 0.00 0.00 0.00 0.00 0.00 0.00 0.00 0.01 0.01 0.01 0.04 0.05
nan nan nan nan nan nan nan nan nan nan nan 0.00 0.15 0.37 0.22 1.74 4.82 2.19 1.45 1.23 2.23 0.70 1.15 1.17 2.77 0.41 0.41 0.17 1.05 0.79 1.77 1.54 0.25 1.81 0.31 0.16 0.00 0.00 0.00 0.00 0.00 0.00 0.00 0.01 0.00 0.00 0.00 0.00 0.00 0.03 0.11 0.06 0.30 0.08
nan nan nan nan nan nan nan nan nan 0.00 0.00 0.26 1.15 4.91 2.22 2.35 0.88 0.67 0.52 0.82 0.90 0.97 0.85 0.60 0.99 0.74 1.08 1.23 0.99 1.82 0.62 0.40 1.40 1.14 0.73 0.07 0.00 0.00 0.00 0.00 0.00 0.00 0.18 0.07 0.01 0.01 0.05 0.09 0.09 0.28 0.51 0.64 0.45 0.09
nan nan nan nan nan nan nan nan nan 0.00 0.05 0.31 0.63 3.16 1.33 0.72 0.74 0.94 1.03 0.85 0.43 0.40 0.50 0.74 0.67 0.19 1.25 1.93 0.97 0.79 1.76 1.57 0.76 0.82 0.42 0.15 0.00 0.00 0.00 0.00 0.00 0.04 0.31 0.17 0.01 0.08 0.42 0.30 0.16 0.08 0.16 0.09 0.08 0.49
nan nan 0.00 nan nan nan nan nan 0.00 0.00 0.21 0.26 0.41 1.07 0.85 1.75 2.82 3.03 2.11 1.87 0.26 0.41 0.46 0.50 0.76 1.36 1.32 1.17 1.11 1.21 0.80 0.67 0.97 0.54 0.29 0.07 0.01 0.01 0.02 0.02 0.02 0.01 0.02 0.02 0.02 0.02 0.10 0.27 0.33 0.04 0.10 0.21 0.76 0.75
nan 0.07 nan nan nan nan nan 0.00 0.14 0.04 0.45 0.59 1.82 0.78 1.36 1.44 1.79 1.57 1.18 0.46 0.02 0.93 2.53 0.83 1.23 0.69 0.40 0.90 0.57 0.29 1.59 0.80 0.48 0.18 0.09 0.01 0.02 0.01 0.02 0.02 0.39 0.05 0.02 0.03 0.02 0.03 0.03 0.07 0.16 0.14 0.23 0.03 0.04 0.13
0.05 0.00 nan nan nan nan 0.00 0.04 0.35 0.34 0.38 0.38 1.60 1.23 0.76 0.80 1.26 1.40 0.82 0.29 0.45 0.27 0.35 0.30 0.23 0.65 1.95 0.76 0.95 0.59 0.26 0.23 0.13 0.19 0.08 0.03 0.01 0.01 0.00 0.00 0.00 0.01 0.01 0.02 0.08 0.04 0.05 0.26 0.11 0.15 0.02 0.03 0.07 0.10
0.00 0.00 nan nan 0.00 0.14 0.32 0.29 0.10 0.35 0.62 0.36 0.30 0.34 0.44 0.83 0.47 0.28 0.88 0.57 0.22 0.14 0.45 0.56 1.24 0.69 0.92 0.37 0.76 0.69 0.60 0.31 0.13 0.05 0.04 0.00 0.02 0.02 0.01 0.01 0.01 0.01 0.02 0.02 0.03 0.11 0.09 0.02 0.08 0.09 0.12 0.15 0.28 0.31
nan nan nan nan nan 0.23 0.27 0.60 0.10 0.12 0.39 0.26 0.31 0.34 0.36 0.39 0.76 2.14 1.84 0.73 0.36 0.58 0.78 0.75 0.57 0.42 0.29 0.19 0.12 0.18 0.12 0.12 0.11 0.18 0.12 0.06 0.07 0.01 0.01 0.03 0.09 0.03 0.08 0.03 0.15 0.05 0.19 0.16 0.13 0.19 0.21 0.25 0.68 0.79
nan nan nan 0.00 0.22 0.00 0.23 0.28 0.17 0.19 0.15 0.18 0.19 0.19 0.58 0.67 1.05 1.54 1.23 0.38 2.09 0.62 0.39 0.26 0.63 0.14 0.05 0.10 0.10 0.10 0.07 0.05 0.07 0.25 0.21 0.12 0.09 0.10 0.09 0.10 0.14 0.14 0.19 0.22 0.79 0.43 0.33 0.41 0.23 0.26 2.28 2.71 1.73 1.35
0.00 nan 0.37 0.34 0.67 0.72 0.65 0.17 0.20 0.21 0.41 0.38 0.39 0.28 1.27 2.94 2.72 1.64 0.43 1.24 0.43 0.19 0.07 0.15 0.08 0.09 0.07 0.03 0.04 0.01 0.01 0.01 0.01 0.09 0.03 0.06 0.17 0.16 0.16 0.15 0.24 0.44 0.39 0.69 0.41 0.98 0.56 0.29 0.59 0.76 1.69 2.65 1.14 1.34
nan 0.31 1.22 0.94 1.38 2.00 2.84 0.18 0.92 0.16 1.18 0.94 0.63 0.75 1.37 1.24 0.73 0.21 1.37 0.15 0.21 0.05 0.05 0.04 0.01 0.00 0.02 0.01 0.02 0.01 0.01 0.01 0.10 0.16 0.25 0.19 0.15 0.36 0.37 0.28 0.35 1.00 0.76 0.30 0.25 0.56 0.76 0.83 1.00 2.39 1.74 1.82 1.79 3.55
nan 1.36 1.79 1.78 1.75 3.04 1.52 1.91 0.33 0.54 0.75 1.04 1.11 1.04 0.20 0.63 0.43 1.15 1.02 0.66 0.14 0.12 0.11 0.01 0.06 0.10 0.09 0.02 0.08 0.07 0.07 0.08 0.11 0.16 0.22 0.27 0.29 0.23 0.23 0.25 0.46 0.49 0.34 0.28 0.56 1.00 0.99 2.53 2.17 1.16 2.64 4.75 5.65 4.66
2.83 3.46 2.65 4.10 1.87 2.78 2.22 2.19 1.17 0.87 1.29 1.47 1.12 1.21 2.12 0.60 1.42 1.25 0.58 0.46 0.50 0.67 0.43 0.29 0.15 0.11 0.12 0.26 0.18 0.13 0.04 0.10 0.20 0.22 0.26 0.28 0.47 0.54 0.34 0.23 0.28 0.32 0.54 1.99 2.43 3.17 3.16 3.08 3.33 3.07 1.87 5.27 1.73 2.15
4.43 4.08 3.44 1.83 2.74 1.78 1.10 1.65 1.71 2.09 1.31 1.45 1.50 0.84 1.49 1.69 1.32 1.15 0.29 0.74 1.29 0.67 2.97 2.11 1.05 0.33 0.16 0.09 0.12 0.15 0.15 0.19 0.25 0.30 0.24 0.23 0.31 1.18 1.40 1.11 0.93 0.80 0.74 1.55 2.51 4.00 2.95 3.25 3.61 1.87 3.35 2.00 2.46 4.35
3.84 3.72 0.67 0.20 0.34 0.27 2.20 2.16 0.84 1.49 1.41 1.58 1.27 1.68 1.92 2.18 1.89 0.41 0.23 0.25 0.22 0.50 0.31 0.35 0.31 0.24 0.19 0.15 0.17 0.31 0.33 0.39 0.43 0.30 0.35 0.31 0.35 0.35 1.08 2.06 1.14 0.78 0.73 1.46 2.31 4.57 4.44 4.14 4.38 2.89 3.51 3.85 4.17 4.45
1.23 0.78 1.58 1.81 2.10 0.69 1.60 1.20 1.36 1.38 1.06 0.40 1.08 1.55 1.94 1.73 0.76 0.51 0.24 0.29 0.73 0.33 0.34 0.42 0.38 0.28 0.31 0.36 0.45 0.70 0.89 0.83 1.11 0.89 0.72 0.69 0.61 1.15 1.08 1.21 1.08 2.44 1.55 2.99 3.79 3.98 3.13 4.65 4.97 4.87 4.23 4.22 4.54 4.22
1.27 0.91 1.10 1.50 1.00 1.15 1.29 1.52 1.22 0.47 0.20 0.74 2.77 1.24 0.99 0.36 0.99 0.59 0.39 0.51 0.81 0.79 0.87 1.09 1.37 2.04 1.13 0.93 1.36 1.11 1.44 1.70 1.48 1.46 2.04 2.05 2.11 1.78 1.31 1.59 1.74 2.28 2.18 2.35 2.57 2.65 2.61 3.26 3.81 4.27 4.35 4.81 4.59 5.01
1.13 1.13 1.55 1.41 1.19 1.01 2.32 1.64 2.17 1.79 0.22 0.79 0.48 0.40 0.38 0.80 0.88 0.69 0.95 0.95 1.33 3.18 4.84 3.84 3.53 3.43 4.87 3.44 2.84 2.07 2.41 3.13 2.53 3.46 3.72 2.70 2.25 2.18 2.57 3.25 3.22 3.12 3.07 5.66 3.25 1.54 2.49 3.38 3.73 4.81 4.12 3.70 4.02 4.29
0.97 2.27 2.30 1.44 1.72 3.24 3.10 3.70 3.75 1.93 2.08 3.22 3.48 3.64 2.26 1.43 1.54 1.08 0.90 1.34 1.53 5.67 6.14 6.39 6.16 6.45 5.04 3.11 5.18 4.60 2.98 4.80 1.93 1.46 1.47 2.23 2.66 3.63 3.86 3.36 3.58 4.04 4.20 3.86 4.75 3.37 3.09 3.82 4.12 4.11 2.94 2.56 2.55 2.67
2.58 3.72 2.85 1.54 2.30 4.60 2.59 5.56 4.50 3.96 5.00 4.54 5.14 4.44 4.91 3.92 2.19 1.63 1.84 3.11 3.99 4.78 2.59 3.93 5.94 2.66 2.56 2.35 4.01 3.16 3.10 1.89 1.93 1.89 1.99 2.64 3.32 3.81 2.42 2.02 4.60 4.68 3.78 4.06 3.38 3.44 2.78 3.53 3.35 3.72 3.15 2.74 2.45 2.18
5.61 4.11 2.72 2.35 4.72 2.79 3.21 4.14 1.26 3.67 3.29 3.73 4.27 3.82 3.96 3.16 1.82 2.35 1.07 2.80 3.51 3.85 3.18 4.45 4.74 5.69 2.85 2.45 2.25 2.48 2.90 2.16 2.65 3.42 3.01 3.00 2.98 2.87 2.72 4.07 4.89 3.75 2.30 3.17 3.55 3.16 2.69 2.00 2.13 2.38 2.44 2.76 2.49 2.26
SL_Ratio
nan nan nan nan nan nan nan nan nan nan nan nan nan nan nan nan nan nan nan nan nan 4.3 nan nan nan nan nan 4.2 4.2 nan 4.0 4.1 3.8 3.9 4.4 4.8 4.5 4.9 5.0 5.7 5.3 5.1 5.1 5.1 4.9 5.2 5.5 nan nan 4.8 4.4 nan nan nan
nan nan nan nan nan nan nan nan nan nan nan nan nan nan nan nan nan nan nan nan nan 3.8 4.0 nan nan nan nan nan nan nan 3.9 nan 3.9 3.9 3.9 4.6 4.3 4.2 4.8 5.2 nan 5.0 4.6 5.0 4.9 5.0 nan nan nan nan nan nan nan nan
nan nan nan nan nan nan nan nan nan nan nan nan nan nan nan nan nan nan nan nan nan 3.8 4.0 nan nan nan nan nan nan 3.9 3.9 nan 3.9 nan 4.1 4.0 4.0 4.0 4.2 4.2 4.1 nan nan 4.2 4.1 10.0 nan nan nan nan nan nan nan nan
nan nan nan nan nan nan nan nan nan nan nan nan nan nan nan nan nan nan nan nan nan 3.8 3.7 3.9 nan nan nan nan nan nan nan nan nan 3.9 3.8 3.8 3.9 nan 3.9 3.8 3.8 3.8 4.0 4.4 3.9 nan nan nan nan nan nan nan nan nan
nan nan nan nan nan nan nan nan nan nan nan nan nan nan nan nan nan nan nan nan nan 3.8 3.8 3.8 nan nan nan nan nan nan nan nan 3.8 3.8 3.7 3.8 3.9 3.8 3.9 3.9 3.9 nan 4.2 3.9 3.9 nan nan nan nan nan nan nan nan nan
nan nan nan nan nan nan nan nan nan nan nan nan nan nan nan nan nan nan nan nan nan nan 3.8 3.8 3.8 nan nan nan nan nan nan nan nan 3.9 3.8 3.8 nan 3.8 3.8 3.8 nan nan nan nan nan nan nan nan nan nan nan nan nan nan
nan nan nan nan nan nan nan nan nan nan nan nan nan nan nan nan nan nan nan nan nan nan 3.8 3.7 3.8 3.8 nan nan nan nan nan nan nan 3.9 3.8 3.9 3.8 3.6 3.8 3.8 nan nan nan nan nan nan nan nan nan nan nan nan nan nan
nan nan nan nan nan nan nan nan nan nan nan nan nan nan nan nan nan 3.9 nan nan nan nan 3.8 3.7 3.8 3.9 nan 3.8 3.8 nan 3.8 3.8 3.9 nan 3.8 3.8 3.8 3.8 3.8 nan nan nan nan nan nan nan nan nan nan nan nan nan nan nan
nan nan nan nan nan nan nan nan nan nan nan nan nan nan nan nan 3.8 3.6 nan nan nan 3.8 3.8 3.7 3.8 3.9 nan 3.9 3.8 4.1 3.8 3.8 3.8 3.8 3.8 3.8 3.8 3.8 4.0 nan nan nan nan nan nan nan nan nan nan nan nan nan nan nan
nan nan nan nan nan nan nan nan nan nan nan nan nan 3.8 3.8 3.8 nan nan 3.6 3.8 3.8 3.8 3.8 3.8 3.9 3.8 4.0 3.8 3.8 3.8 3.8 4.0 4.8 3.9 4.5 3.8 3.9 nan nan nan nan nan nan nan 5.0 4.1 nan nan nan nan nan nan nan nan
nan nan nan nan nan nan nan nan nan nan nan 3.8 3.8 3.8 nan nan nan 3.8 3.9 3.9 3.7 4.0 3.9 4.0 3.8 3.8 3.8 3.8 3.8 3.8 4.3 4.5 5.3 5.1 4.7 5.0 5.2 nan nan nan nan nan nan nan nan nan nan nan nan nan 3.3 4.8 5.2 5.2
nan nan nan nan nan nan nan nan nan nan nan nan 3.9 nan 3.8 nan 3.8 3.7 4.5 4.6 4.6 4.9 4.3 4.0 3.8 3.8 3.8 nan 3.9 4.6 4.9 4.9 5.6 5.0 5.1 5.6 5.1 nan nan nan nan nan nan nan nan nan nan nan nan 5.3 5.2 5.1 5.3 5.3
nan nan nan nan nan nan nan nan nan nan nan nan 3.8 3.8 3.9 4.4 6.5 5.3 5.8 5.1 5.0 4.4 3.8 3.8 3.8 3.8 3.8 3.8 4.5 4.6 5.5 5.7 4.9 5.5 5.5 5.3 nan nan nan nan nan nan 5.0 4.8 nan nan nan 10.0 6.7 5.2 5.5 5.3 5.3 5.6
nan nan nan nan nan nan nan nan nan nan nan 4.3 4.7 6.6 5.3 5.4 5.4 5.3 5.0 4.9 4.2 3.9 3.8 3.8 4.2 4.8 4.8 4.9 5.1 5.4 5.4 5.2 5.9 6.1 5.6 5.0 nan nan nan nan nan nan 5.8 5.7 5.0 5.0 5.4 5.5 5.6 5.8 5.4 5.5 6.2 5.8
nan nan nan nan nan nan nan nan nan nan 3.8 4.9 4.9 6.7 5.5 5.2 5.0 4.6 3.9 3.9 3.8 3.8 3.8 4.5 4.7 4.9 5.2 5.4 5.4 5.6 6.0 6.0 5.9 5.9 5.7 4.9 5.3 4.3 4.6 nan nan 5.4 5.9 6.1 5.3 5.4 5.7 5.7 5.6 5.3 5.4 5.4 5.6 6.0
nan nan 4.2 nan nan nan nan nan nan nan 4.8 5.0 5.1 5.4 5.2 5.1 5.1 4.9 4.4 4.1 3.9 4.1 4.6 4.9 5.5 5.8 5.8 5.5 5.6 5.8 6.2 6.5 5.9 5.2 5.0 4.9 4.6 4.8 4.9 5.1 5.2 5.2 5.2 5.3 5.0 5.1 5.6 5.8 5.6 5.0 5.1 5.3 5.6 5.6
nan 3.9 nan nan nan nan nan nan 3.9 4.9 5.1 5.1 5.5 5.1 5.0 5.1 4.9 5.0 4.6 4.5 3.8 4.8 5.2 5.2 5.9 6.2 5.5 6.1 6.3 5.5 6.0 5.4 5.1 5.1 5.0 5.0 4.9 5.0 5.0 5.1 5.9 5.6 5.2 5.3 5.2 5.3 5.3 5.5 5.6 5.6 5.7 5.2 5.4 5.6
3.9 nan nan nan nan nan nan 4.5 5.0 5.1 5.6 5.4 5.9 5.2 5.2 5.1 5.0 4.9 4.7 4.6 4.2 5.0 5.1 5.4 5.3 5.8 6.0 6.5 6.4 5.6 5.3 5.2 5.1 5.1 5.0 4.8 4.8 5.0 5.0 5.0 nan 5.5 5.0 5.1 5.4 5.2 5.4 5.7 5.7 5.1 5.4 5.3 5.5 5.6
nan nan nan nan nan 4.3 4.8 4.9 4.8 5.4 5.6 5.3 5.3 5.3 5.2 5.2 5.2 5.1 4.8 4.7 4.6 4.7 5.1 5.3 5.5 6.1 6.0 5.5 5.3 5.2 5.1 5.2 5.1 4.9 4.9 4.7 5.0 4.9 4.9 5.0 4.9 5.0 5.2 5.1 4.9 5.0 5.1 5.2 5.1 4.8 5.0 5.3 5.4 5.4
nan nan nan nan nan 4.8 5.3 5.2 4.9 5.2 5.4 5.5 5.2 5.2 5.3 5.4 5.2 5.0 4.9 4.8 4.8 4.9 5.5 5.8 5.7 5.3 5.3 5.2 5.2 5.1 5.1 5.0 5.1 5.3 5.1 4.8 4.9 4.8 5.0 4.9 4.7 4.6 4.7 4.9 5.1 5.1 5.3 5.3 5.0 5.0 5.1 5.3 5.3 5.4
nan nan nan nan 4.2 5.0 4.9 5.2 5.2 5.2 5.3 5.3 5.2 5.2 5.6 5.3 5.4 5.4 5.3 5.0 5.4 5.6 5.6 5.3 5.3 5.0 5.0 5.0 4.9 5.0 5.0 4.9 5.0 5.1 5.1 5.1 4.6 4.9 4.9 4.8 4.8 4.9 5.1 5.1 5.2 5.1 5.1 5.1 4.9 4.6 4.3 4.2 4.2 4.3
nan nan 3.7 3.9 4.8 5.0 5.6 5.0 5.2 5.3 5.5 5.3 5.5 5.3 5.7 5.7 5.9 6.0 5.3 5.7 5.6 5.3 5.2 5.2 5.0 5.0 5.0 5.0 5.0 5.3 4.7 5.1 4.7 5.1 5.1 5.1 5.2 5.1 5.1 5.0 5.1 5.2 5.2 4.8 4.9 4.5 4.6 4.5 4.4 4.3 4.2 4.1 4.6 4.9
nan 4.6 4.9 4.8 5.4 5.9 6.5 5.1 5.6 5.4 6.0 5.7 5.6 5.9 6.0 5.9 5.7 5.5 6.2 5.4 5.3 5.0 4.9 4.9 4.8 5.6 4.9 5.0 5.2 4.8 5.2 4.8 5.1 5.1 5.1 5.1 5.0 5.1 5.1 5.2 5.2 5.0 5.1 4.8 4.7 4.5 4.5 3.4 4.2 4.4 4.4 4.7 5.2 5.4
nan 5.3 5.7 6.0 5.5 6.1 5.3 6.1 5.3 5.6 5.6 6.0 6.1 6.4 5.9 5.8 6.0 6.3 6.7 5.8 5.2 5.1 5.1 5.0 5.0 5.0 5.1 5.3 5.2 5.0 5.1 5.1 5.1 5.1 5.1 5.2 5.2 5.1 5.1 5.1 5.0 4.8 4.8 4.6 4.7 4.5 4.7 4.5 3.4 5.3 5.1 5.3 5.4 5.5
6.5 7.6 5.9 8.2 5.6 6.6 6.8 6.2 6.3 6.2 7.0 6.5 6.8 6.4 6.3 5.9 6.9 7.0 6.8 5.9 5.5 5.4 5.4 5.2 5.3 5.2 5.3 5.3 5.3 5.3 5.5 5.1 5.2 5.3 5.1 5.2 5.2 5.2 5.2 5.1 5.2 5.0 4.7 4.8 4.9 4.8 4.7 4.8 5.1 5.3 5.6 5.4 5.8 5.8
8.7 5.8 5.1 5.9 6.9 6.5 6.9 8.2 8.0 7.3 7.1 7.7 6.4 6.0 5.8 6.4 7.4 7.9 5.9 5.7 5.8 5.7 5.6 5.6 5.5 5.4 5.4 5.3 5.3 5.4 5.2 5.1 5.2 5.4 5.2 5.3 5.5 5.6 5.7 5.7 5.8 5.3 5.2 4.9 5.1 5.3 5.3 5.3 5.5 5.7 6.0 5.6 3.7 5.9
8.7 7.2 5.7 5.4 5.5 5.8 7.2 6.5 6.1 6.6 7.9 8.4 6.5 7.1 6.9 9.2 8.1 6.1 5.7 5.9 5.9 5.8 5.5 5.4 5.4 5.5 5.6 5.5 5.6 5.7 5.6 5.7 5.9 5.8 5.5 5.6 5.8 5.8 6.0 6.3 6.5 5.9 5.3 5.0 4.9 5.1 5.4 5.5 5.5 5.7 5.8 5.6 5.7 5.8
6.2 5.7 9.2 5.9 6.3 5.7 7.9 7.7 7.2 7.4 6.4 5.8 7.5 8.3 8.2 7.8 7.5 6.2 6.5 6.1 6.1 5.6 5.5 5.3 5.5 5.7 5.8 6.2 6.4 6.6 6.0 6.2 5.9 5.7 5.6 5.7 5.8 6.1 6.3 5.8 5.6 3.0 5.4 5.2 5.2 5.2 5.3 5.3 5.5 5.7 6.0 6.3 6.6 6.2
6.7 5.8 5.8 9.5 7.6 6.4 7.2 7.5 7.0 5.9 5.5 6.0 7.1 7.2 6.2 5.9 6.8 6.9 7.0 6.9 6.3 6.3 6.9 6.8 6.4 6.2 6.4 6.4 6.9 6.9 6.8 7.0 7.4 8.0 7.5 7.6 6.8 7.0 6.8 6.6 6.6 6.7 6.4 6.3 3.0 4.0 5.3 6.1 6.1 6.4 5.9 6.6 6.9 7.0
7.0 5.6 6.7 7.7 9.6 8.1 6.4 5.9 5.7 5.5 5.6 5.3 5.4 5.8 6.2 7.0 6.9 6.7 6.8 6.8 6.9 6.7 6.5 6.7 6.6 6.8 7.5 7.4 7.4 7.1 6.7 6.3 6.5 7.1 7.5 7.6 7.4 7.2 7.1 6.9 6.8 6.5 6.2 6.2 7.2 8.1 3.7 7.2 5.2 7.7 7.7 7.8 7.9 8.7
5.9 6.0 6.3 6.0 7.2 5.9 6.1 5.9 5.8 5.8 5.6 5.5 5.7 6.1 7.0 7.1 7.2 7.3 7.2 7.3 7.2 6.6 6.6 7.2 7.0 6.4 7.6 8.0 7.4 7.5 8.1 6.6 7.4 7.6 7.6 7.4 7.2 6.9 6.7 6.8 6.7 6.7 6.5 6.9 7.2 8.7 9.0 8.5 7.7 7.7 8.4 8.2 9.2 9.4
6.4 6.4 7.8 8.3 6.6 6.1 6.0 6.0 6.0 6.1 5.8 6.4 6.4 6.3 6.9 7.6 8.3 8.4 9.4 9.0 8.2 7.9 3.5 8.4 8.3 8.6 7.8 7.6 7.0 7.1 3.3 7.9 8.1 8.2 7.6 7.6 7.2 7.0 7.0 7.0 6.7 6.6 6.9 7.1 7.4 7.6 7.7 8.6 9.0 9.0 9.2 8.9 9.2 9.5
6.4 6.6 7.3 7.5 6.9 6.2 6.2 6.3 6.4 6.3 7.1 7.3 7.3 7.5 7.7 8.3 8.5 9.6 9.4 9.2 9.1 9.1 9.3 8.9 8.7 8.3 7.7 7.7 8.0 7.8 4.7 9.0 7.0 3.0 3.0 3.0 3.0 3.7 7.4 7.2 6.9 7.1 7.5 7.5 7.7 8.1 7.7 7.9 9.6 8.7 9.5 9.6 9.7 9.7